Regional Weather Roundup
Issued by NWS

Home | Current Version | Previous Version | Graphics & Text | Print | Product List | Glossary On
Versions: 1 2 3 4 5 6 7 8 9 10 11 12 13 14 15 16 17 18 19 20 21 22 23 24 25 26 27 28 29 30 31 32 33 34 35 36 37 38 39 40 41 42 43 44 45 46 47 48 49 50
000
ASUS43 KFSD 190710
RWRSD

WEATHER ROUNDUP FOR SOUTH DAKOTA
NATIONAL WEATHER SERVICE SIOUX FALLS SD
100 AM CST FRI JAN 19 2018

NOTE: "FAIR" INDICATES FEW OR NO CLOUDS BELOW 12,000 FEET WITH NO
SIGNIFICANT WEATHER AND/OR OBSTRUCTIONS TO VISIBILITY.


SDZ001>005-009-010-012>017-190800-
NORTHWEST AND NORTH CENTRAL SOUTH DAKOTA

CITY           SKY/WX    TMP DP  RH WIND       PRES   REMARKS
BUFFALO          N/A     41  28  60 SW7       29.56F
FAITH            N/A     36  27  69 W7        29.62F
MOBRIDGE       MOCLDY    31  25  78 SE6       29.61F WCI  25
$$

SDZ012>016-024>037-041>051-057-063-072>074-190800-
SOUTHWEST AND SOUTH CENTRAL SOUTH DAKOTA

CITY           SKY/WX    TMP DP  RH WIND       PRES   REMARKS
RAPID CTY ARPT CLOUDY    41  27  57 CALM      29.66F
PIERRE         CLOUDY    28  25  88 VRB5      29.64F WCI  23
CUSTER         CLOUDY    44  23  43 W13G22    29.74F
ELLSWORTH AFB  CLOUDY    44  28  54 CALM      29.65F
PHILIP         CLOUDY    33  28  81 W9        29.63F WCI  25
PINE RIDGE     CLOUDY    35  29  78 W5        29.74F
SPEARFISH        N/A     54  28  37 SW16G26   29.66F
WINNER         FAIR      42  31  64 SW14      29.66F
$$

SDZ004>011-016>023-039-040-190800-
NORTHEAST SOUTH DAKOTA

CITY           SKY/WX    TMP DP  RH WIND       PRES   REMARKS
ABERDEEN       MOCLDY    27  24  89 S12       29.65F WCI  17
WATERTOWN      CLOUDY    29  27  92 S7        29.67F WCI  22
BROOKINGS      CLOUDY    29  26  89 SE7       29.71F WCI  22
SISSETON         N/A     45  26  47 SW10G20   29.61F
$$

SDZ017-020-022-023-036>040-048>070-190800-
SOUTHEAST SOUTH DAKOTA

CITY           SKY/WX    TMP DP  RH WIND       PRES   REMARKS
SIOUX FALLS    CLOUDY    33  28  81 S6        29.73F WCI  28
HURON          CLOUDY    31  27  85 SE7       29.66F WCI  24
CHAMBERLAIN    CLOUDY    34  32  90 CALM      29.66F
MITCHELL       CLOUDY    31  27  85 S8        29.70F WCI  23
YANKTON        CLOUDY    30  26  85 E3        29.74F
$$

ABBREVIATIONS USED IN REMARKS
   TC - TEMPERATURE IN CELSIUS
  WCI - WIND CHILL INDEX
   HX - HEAT INDEX
  VSB - VISIBILITY





USA.gov is the U.S. government's official web portal to all federal, state and local government web resources and services.